TimeCDT,TemperatureF,Dew PointF,Humidity,Sea Level PressureIn,VisibilityMPH,Wind Direction,Wind SpeedMPH,Gust SpeedMPH,PrecipitationIn,Events,Conditions,WindDirDegrees,DateUTC
12:15 AM,32.4,27.3,82,29.83,10.0,North,29.9,41.4,N/A,,Overcast,10,2013-03-10 06:15:00
12:35 AM,32.4,27.1,81,29.83,10.0,North,28.8,39.1,N/A,,Overcast,360,2013-03-10 06:35:00
12:55 AM,32.5,27.5,82,29.82,10.0,North,27.6,33.4,N/A,,Overcast,360,2013-03-10 06:55:00
1:15 AM,32.9,27.5,81,29.81,10.0,North,28.8,40.3,N/A,,Overcast,360,2013-03-10 07:15:00
1:35 AM,32.9,27.9,82,29.82,10.0,North,27.6,38.0,N/A,,Overcast,350,2013-03-10 07:35:00
1:55 AM,32.4,28.4,85,29.82,4.0,North,26.5,35.7,N/A,Snow,Light Snow,350,2013-03-10 07:55:00
3:15 AM,32.2,29.3,89,29.82,1.8,North,25.3,35.7,0.01,Snow,Light Snow,350,2013-03-10 08:15:00
3:35 AM,32.0,29.1,89,29.82,1.8,North,28.8,38.0,0.01,Snow,Light Snow,350,2013-03-10 08:35:00
3:55 AM,32.0,28.6,87,29.83,2.5,North,28.8,42.6,0.01,Snow,Light Snow,350,2013-03-10 08:55:00
4:15 AM,31.8,28.4,87,29.83,2.5,North,32.2,40.3,N/A,Snow,Light Snow,350,2013-03-10 09:15:00
4:35 AM,30.2,27.1,88,29.83,1.2,North,34.5,46.0,N/A,Snow,Light Snow,350,2013-03-10 09:35:00
4:55 AM,29.8,26.4,87,29.84,2.0,North,28.8,40.3,N/A,Snow,Light Snow,350,2013-03-10 09:55:00
5:15 AM,29.1,23.4,79,29.86,2.5,North,34.5,49.5,N/A,Snow,Light Snow,350,2013-03-10 10:15:00
5:35 AM,29.3,21.2,72,29.86,10.0,North,35.7,42.6,N/A,,Overcast,350,2013-03-10 10:35:00
5:55 AM,28.9,18.9,66,29.88,10.0,North,32.2,41.4,N/A,,Overcast,350,2013-03-10 10:55:00
6:15 AM,28.4,18.5,66,29.90,10.0,North,29.9,42.6,N/A,,Overcast,350,2013-03-10 11:15:00
7:35 AM,26.6,17.8,69,29.94,10.0,North,27.6,39.1,N/A,,Overcast,350,2013-03-10 12:35:00
7:55 AM,26.1,17.2,69,29.95,10.0,North,25.3,38.0,N/A,,Overcast,350,2013-03-10 12:55:00
8:15 AM,25.7,17.4,71,29.95,10.0,NNW,24.2,35.7,N/A,,Overcast,340,2013-03-10 13:15:00
8:35 AM,25.2,16.9,71,29.95,10.0,NNW,26.5,38.0,N/A,,Overcast,340,2013-03-10 13:35:00
8:55 AM,24.8,16.7,71,29.97,10.0,NNW,25.3,36.8,N/A,,Overcast,340,2013-03-10 13:55:00
9:15 AM,24.6,17.4,74,29.97,10.0,NNW,25.3,33.4,N/A,,Overcast,340,2013-03-10 14:15:00
9:35 AM,24.6,16.9,72,29.97,10.0,NNW,24.2,38.0,N/A,,Overcast,340,2013-03-10 14:35:00
9:55 AM,24.8,17.1,72,29.97,10.0,NNW,25.3,36.8,N/A,,Overcast,340,2013-03-10 14:55:00
10:15 AM,24.6,16.9,72,29.99,10.0,North,31.1,38.0,N/A,,Mostly Cloudy,350,2013-03-10 15:15:00
10:35 AM,24.8,17.4,74,30.00,10.0,North,26.5,36.8,N/A,,Mostly Cloudy,350,2013-03-10 15:35:00
10:55 AM,24.1,16.2,72,30.00,10.0,NNW,29.9,39.1,N/A,,Mostly Cloudy,340,2013-03-10 15:55:00
11:15 AM,24.3,16.5,72,30.00,10.0,NNW,31.1,38.0,N/A,,Mostly Cloudy,340,2013-03-10 16:15:00
11:35 AM,24.8,17.2,73,30.00,10.0,NNW,28.8,35.7,N/A,,Mostly Cloudy,340,2013-03-10 16:35:00
11:55 AM,24.8,16.7,71,30.01,10.0,North,27.6,39.1,N/A,,Mostly Cloudy,350,2013-03-10 16:55:00
12:15 PM,24.8,15.8,69,30.01,10.0,NNW,25.3,40.3,N/A,,Mostly Cloudy,340,2013-03-10 17:15:00
12:35 PM,25.2,15.8,68,30.01,10.0,NNW,28.8,36.8,N/A,,Overcast,340,2013-03-10 17:35:00
12:55 PM,26.1,16.9,68,30.01,10.0,NNW,27.6,35.7,N/A,,Overcast,340,2013-03-10 17:55:00
1:15 PM,25.9,17.1,69,30.02,10.0,NNW,26.5,36.8,N/A,,Overcast,340,2013-03-10 18:15:00
1:35 PM,26.1,16.2,66,30.02,10.0,North,26.5,35.7,N/A,,Mostly Cloudy,350,2013-03-10 18:35:00
1:55 PM,27.3,17.2,66,30.02,10.0,North,27.6,36.8,N/A,,Overcast,350,2013-03-10 18:55:00
2:15 PM,26.8,17.1,67,30.01,10.0,NNW,25.3,40.3,N/A,,Mostly Cloudy,340,2013-03-10 19:15:00
2:35 PM,27.3,17.4,66,30.01,10.0,NNW,24.2,34.5,N/A,,Mostly Cloudy,340,2013-03-10 19:35:00
2:55 PM,28.2,17.8,65,30.00,10.0,NNW,24.2,33.4,N/A,,Overcast,340,2013-03-10 19:55:00
3:15 PM,28.4,18.0,65,30.00,10.0,NNW,23.0,31.1,N/A,,Mostly Cloudy,330,2013-03-10 20:15:00
3:35 PM,28.2,17.4,64,30.00,10.0,NNW,21.9,32.2,N/A,,Mostly Cloudy,340,2013-03-10 20:35:00
3:55 PM,29.3,18.1,63,30.00,10.0,NNW,24.2,35.7,N/A,,Overcast,330,2013-03-10 20:55:00
4:15 PM,29.3,18.1,63,30.01,10.0,NNW,23.0,33.4,N/A,,Mostly Cloudy,340,2013-03-10 21:15:00
4:35 PM,28.8,17.8,64,30.01,10.0,NNW,21.9,34.5,N/A,,Scattered Clouds,340,2013-03-10 21:35:00
4:55 PM,28.8,17.8,64,30.01,10.0,NNW,21.9,32.2,N/A,,Scattered Clouds,340,2013-03-10 21:55:00
5:15 PM,29.3,18.0,63,30.00,10.0,NNW,24.2,32.2,N/A,,Mostly Cloudy,340,2013-03-10 22:15:00
5:35 PM,30.0,17.8,60,30.00,10.0,NNW,24.2,33.4,N/A,,Scattered Clouds,340,2013-03-10 22:35:00
5:55 PM,29.3,17.4,61,30.00,10.0,NNW,23.0,33.4,N/A,,Clear,340,2013-03-10 22:55:00
6:15 PM,28.8,17.2,62,30.00,10.0,North,24.2,32.2,N/A,,Clear,350,2013-03-10 23:15:00
6:35 PM,28.8,17.2,62,29.99,10.0,NNW,21.9,33.4,N/A,,Clear,340,2013-03-10 23:35:00
6:55 PM,28.0,17.1,63,30.00,10.0,NNW,24.2,31.1,N/A,,Clear,340,2013-03-10 23:55:00
7:15 PM,27.5,17.1,65,30.00,10.0,NNW,23.0,29.9,N/A,,Clear,340,2013-03-11 00:15:00
7:35 PM,27.1,17.2,66,30.01,10.0,NNW,18.4,26.5,N/A,,Clear,330,2013-03-11 00:35:00
7:55 PM,26.2,16.9,68,30.02,10.0,NNW,20.7,27.6,N/A,,Clear,340,2013-03-11 00:55:00
8:15 PM,25.7,17.4,71,30.02,10.0,NNW,16.1,26.5,N/A,,Clear,330,2013-03-11 01:15:00
8:35 PM,25.3,17.1,71,30.02,10.0,NNW,17.3,24.2,N/A,,Clear,340,2013-03-11 01:35:00
8:55 PM,24.8,16.7,71,30.02,10.0,NNW,16.1,21.9,N/A,,Clear,340,2013-03-11 01:55:00
9:15 PM,24.6,16.9,72,30.02,10.0,NNW,13.8,20.7,N/A,,Clear,330,2013-03-11 02:15:00
9:35 PM,24.3,16.7,73,30.01,10.0,NNW,12.7,20.7,N/A,,Clear,340,2013-03-11 02:35:00
9:55 PM,24.3,16.7,73,30.02,10.0,NNW,16.1,25.3,N/A,,Clear,330,2013-03-11 02:55:00
10:15 PM,23.9,16.9,75,30.02,10.0,NNW,17.3,23.0,N/A,,Clear,340,2013-03-11 03:15:00
10:35 PM,23.5,16.7,75,30.01,10.0,NNW,15.0,-,N/A,,Clear,330,2013-03-11 03:35:00
10:55 PM,23.4,16.7,76,30.02,10.0,NNW,15.0,19.6,N/A,,Clear,340,2013-03-11 03:55:00
11:15 PM,22.8,16.7,77,30.01,10.0,NNW,12.7,18.4,N/A,,Clear,330,2013-03-11 04:15:00
11:35 PM,22.6,16.7,78,30.01,10.0,NNW,10.4,19.6,N/A,,Clear,340,2013-03-11 04:35:00
11:55 PM,22.1,16.3,79,30.00,10.0,NNW,10.4,-,N/A,,Clear,330,2013-03-11 04:55:00
12:15 AM,21.7,16.2,79,29.99,10.0,NNW,8.1,-,N/A,,Clear,330,2013-03-11 05:15:00
12:35 AM,21.6,15.8,78,29.99,10.0,NNW,9.2,-,N/A,,Clear,330,2013-03-11 05:35:00
12:55 AM,21.0,15.8,80,29.99,10.0,NW,11.5,-,N/A,,Clear,310,2013-03-11 05:55:00